Ketchikan, AK

3:00 AM AKST on January 21, 2019 (GMT -0900)
Ketchikan International

Weather History for PAKT - December, 2018

Change the Weather History Date:

Sunday, December 30, 2018

  Actual Average Record
Temperature  
Mean Temperature 34 °F -  
Max Temperature 36 °F 39 °F 55 °F (1963)
Min Temperature 33 °F 28 °F 1 °F (1996)
Degree Days  
Heating Degree Days 30    
Moisture  
Dew Point 34 °F    
Average Humidity 96    
Maximum Humidity 100    
Minimum Humidity 86    
Precipitation  
Precipitation 0.01 in - - ()
Sea Level Pressure  
Sea Level Pressure 30.34 in    
Wind  
Wind Speed 2 mph (SSE)    
Max Wind Speed 7 mph    
Max Gust Speed -    
Visibility 7 miles    
Events Fog , Rain    
Averages and records for this station are not official NWS values.
T = Trace of Precipitation, MM = Missing Value Source: NWS Daily Summary

Daily Weather History Graph

Daily Weather History Graph

Search for Another Location

Airport or City:

Astronomy

Dec. 30, 2018 Rise Set
Actual Time 8:14 AM AKST 3:24 PM AKST
Civil Twilight 7:28 AM AKST 4:10 PM AKST
Nautical Twilight 6:40 AM AKST 4:58 PM AKST
Astronomical Twilight 5:55 AM AKST 5:43 PM AKST
Moon 12:58 AM AKST (12/30) 12:26 PM AKST (12/30)
Length of Visible Light 8h 42m
Length of Day
7h 10m
Waning Crescent, 34% of the Moon is Illuminated
Dec 30
Waning Crescent
Jan 5
New
Jan 13
First Quarter
Jan 20
Full
Jan 27
Last Quarter

Hourly Weather History & Observations

Time (AKST) Temp. Windchill Dew Point Humidity Pressure Visibility Wind Dir Wind Speed Gust Speed Precip Events Conditions
12:53 AM 35.1 °F 32.2 °F 34.0 °F 96% 30.15 in 10.0 mi SW 3.5 mph - 0.01 in   Overcast
1:53 AM 36.0 °F - 35.1 °F 97% 30.18 in 10.0 mi Calm Calm - 0.00 in Rain Light Rain
2:53 AM 34.0 °F - 33.1 °F 96% 30.20 in 10.0 mi Calm Calm - 0.00 in   Scattered Clouds
3:09 AM 33.1 °F - 32.0 °F 96% 30.20 in 10.0 mi Calm Calm - N/A   Mostly Cloudy
3:17 AM 34.0 °F - 33.1 °F 96% 30.20 in 10.0 mi Calm Calm - N/A   Mostly Cloudy
3:53 AM 34.0 °F - 33.1 °F 96% 30.22 in 10.0 mi Calm Calm - N/A   Overcast
4:11 AM 33.1 °F 30.0 °F 32.0 °F 96% 30.22 in 1.8 mi SW 3.5 mph - N/A   Mostly Cloudy
4:18 AM 34.0 °F - 33.1 °F 96% 30.23 in 1.8 mi Calm Calm - N/A   Mostly Cloudy
4:39 AM 33.1 °F - 33.1 °F 100% 30.24 in 3.0 mi Calm Calm - N/A   Overcast
4:46 AM 34.0 °F - 33.1 °F 96% 30.25 in 10.0 mi Calm Calm - N/A   Overcast
4:53 AM 34.0 °F - 34.0 °F 100% 30.26 in 10.0 mi Calm Calm - N/A   Overcast
5:53 AM 34.0 °F - 34.0 °F 100% 30.31 in 10.0 mi Calm Calm - N/A   Overcast
6:13 AM 35.1 °F 32.2 °F 34.0 °F 96% 30.30 in 10.0 mi West 3.5 mph - N/A   Overcast
6:53 AM 35.6 °F 32.8 °F 35.6 °F 100% 30.31 in 10.0 mi East 3.5 mph - N/A   Overcast
7:26 AM 35.1 °F 31.0 °F 34.0 °F 96% 30.32 in 0.2 mi SE 4.6 mph - N/A Fog Fog
7:53 AM 34.0 °F 31.0 °F 34.0 °F 100% 30.33 in 0.2 mi South 3.5 mph - N/A Fog Fog
8:26 AM 34.0 °F - 34.0 °F 100% 30.34 in 0.2 mi Calm Calm - N/A Fog Fog
8:53 AM 33.8 °F 30.8 °F 33.8 °F 100% 30.36 in 0.2 mi SE 3.5 mph - N/A Fog Fog
9:02 AM 34.0 °F 29.8 °F 34.0 °F 100% 30.35 in 0.2 mi South 4.6 mph - N/A Fog Fog
9:26 AM 34.0 °F - 34.0 °F 100% 30.36 in 0.2 mi Calm Calm - N/A Fog Fog
9:53 AM 35.1 °F 29.3 °F 34.0 °F 96% 30.38 in 0.2 mi NNW 6.9 mph - N/A Fog Fog
10:19 AM 35.1 °F 31.0 °F 35.1 °F 100% 30.38 in 0.2 mi NW 4.6 mph - N/A Fog Fog
10:58 AM 35.6 °F - 35.6 °F 100% 30.38 in 1.0 mi Calm Calm - N/A   Mist
11:46 AM 35.6 °F 32.8 °F 35.6 °F 100% 30.39 in 1.0 mi SE 3.5 mph - N/A   Mist
11:53 AM 35.1 °F - 35.1 °F 100% 30.41 in 0.2 mi Calm Calm - N/A Fog Fog
12:36 PM 35.1 °F - 35.1 °F 100% 30.40 in 10.0 mi Calm Calm - N/A   Overcast
12:53 PM 35.1 °F 32.2 °F 35.1 °F 100% 30.41 in 4.0 mi SE 3.5 mph - N/A   Overcast
1:02 PM 35.1 °F 32.2 °F 35.1 °F 100% 30.40 in 10.0 mi East 3.5 mph - N/A   Mostly Cloudy
1:53 PM 35.1 °F 30.1 °F 35.1 °F 100% 30.40 in 3.0 mi SE 5.8 mph - N/A   Overcast
2:53 PM 35.6 °F 31.7 °F 33.8 °F 93% 30.42 in 10.0 mi East 4.6 mph - N/A   Mostly Cloudy
3:53 PM 35.6 °F 31.7 °F 33.8 °F 93% 30.42 in 10.0 mi SE 4.6 mph - N/A   Overcast
4:53 PM 35.1 °F 32.2 °F 34.0 °F 96% 30.43 in 10.0 mi South 3.5 mph - N/A   Overcast
5:53 PM 35.1 °F 32.2 °F 34.0 °F 96% 30.41 in 10.0 mi SSE 3.5 mph - N/A   Overcast
6:21 PM 35.1 °F 32.2 °F 33.1 °F 92% 30.40 in 10.0 mi SE 3.5 mph - N/A   Scattered Clouds
6:53 PM 35.1 °F - 34.0 °F 96% 30.42 in 10.0 mi Calm Calm - N/A   Overcast
7:53 PM 35.1 °F - 34.0 °F 96% 30.43 in 10.0 mi Calm Calm - N/A   Scattered Clouds
8:53 PM 35.1 °F 30.1 °F 34.0 °F 96% 30.42 in 10.0 mi SSE 5.8 mph - N/A   Overcast
9:09 PM 35.1 °F 30.1 °F 34.0 °F 96% 30.40 in 10.0 mi SSE 5.8 mph - N/A   Overcast
9:17 PM 35.1 °F 31.0 °F 33.1 °F 92% 30.40 in 10.0 mi SSE 4.6 mph - N/A   Overcast
9:28 PM 36.0 °F 32.1 °F 33.1 °F 89% 30.40 in 10.0 mi SSE 4.6 mph - N/A   Overcast
9:43 PM 36.0 °F 32.1 °F 33.1 °F 89% 30.40 in 10.0 mi SSE 4.6 mph - N/A   Overcast
9:53 PM 36.0 °F 32.1 °F 33.1 °F 89% 30.40 in 10.0 mi SSE 4.6 mph - N/A   Overcast
10:53 PM 36.0 °F 33.3 °F 33.1 °F 89% 30.40 in 10.0 mi SE 3.5 mph - N/A   Overcast
11:53 PM 36.0 °F 32.1 °F 32.0 °F 86% 30.39 in 10.0 mi Variable 4.6 mph - N/A   Overcast